Вернуться в каталог

CZ-4C DEB

АктивенPO
NORAD 43266·DEBRIS·🇨🇳 China

Запущен Mar 31, 2018 с Taiyuan Satellite Launch Center

Loading…

Ближайшие Пролёты (ближайшие 24 часа)

TLE

СвежийSource: Space-Track

Эпоха: Sep 14, 2026, 00:01 UTC

1 43266U 18031H   26257.00116130  .00008116  00000-0  40624-3 0  9993
2 43266  98.1707  85.7721 0018828 354.3874   5.7144 15.17551520460234

Отслеживайте CZ-4C DEB в реальном времени с AllMySat

Download on the App Store